Content
SEND FEEDBACK

Daily
Averages
Monthly
Summary
United States of America

RALEIGH, NORTH CAROLINA


Home > North America > United States > North Carolina
Elevation: 376 feet     Latitude: 35 52N     Longitude: 078 47W

WEATHER
 
SELECT A DAY
Number of Records: 197,643;   Date Range: 1/1/95 - 12/26/14
 
SHARE

PRINT THIS DATA

[ ← Previous Day ]
WEATHER ALMANAC - SEPTEMBER 18, 2013
[ Next Day → ]
[ °C ]   °F
Weather ElementAverageHighLow
Temperature61.4 °F72 °F (1:51 pm)51.1 °F (6:51 am)
Dewpoint49.2 °F53.1 °F (7:51 pm)45 °F (3:51 pm)
Humidity67.5 %92 % (6:51 am)38 % (4:51 pm)
Barometer30.26 in30.31 in (7:51 am)30.19 in (5:51 pm)
Wind Speed3 mph8.1 mph (8:51 am)
Weather ElementAverage
Visibility10 mi
Wind DirectionNNE (25.2 °)

Weather ElementTotal
Precipitation---
Heating Degree Days3.5 (Base 65)
Growing Degree Days11.6 (Base 50)
Averaged from 23 records on September 18, 2013
WEATHER CONDITIONS BREAKOUT
WIND DIRECTION BREAKOUT
WEATHER BY HOUR - SEPTEMBER 18, 2013
[ °C ]   °F
Local TimeTemperatureDewpointHumidityBarometerVisibilityWind DirectionWind SpeedGust SpeedPrecipitationEventsConditions
1:51 AM55.9 °F50.0 °F80 %30.30 in10.0 miENE (70°)5.8 mphPartly Cloudy
2:51 AM54.0 °F48.9 °F83 %30.30 in10.0 miCalmPartly Cloudy
3:51 AM53.1 °F48.9 °F86 %30.29 in10.0 miNNE (30°)4.6 mphPartly Cloudy
4:51 AM52.0 °F48.9 °F89 %30.29 in10.0 miCalmPartly Cloudy
5:51 AM52.0 °F48.9 °F89 %30.29 in10.0 miNNE (30°)4.6 mphPartly Cloudy
6:51 AM51.1 °F48.9 °F92 %30.30 in10.0 miNNE (20°)3.5 mphScattered Clouds
7:51 AM53.1 °F50.0 °F89 %30.31 in10.0 miNorth (10°)4.6 mphScattered Clouds
8:51 AM57.0 °F51.1 °F81 %30.31 in10.0 miNE (50°)8.1 mphPartly Cloudy
9:51 AM62.1 °F48.9 °F62 %30.31 in10.0 miENE (60°)8.1 mphScattered Clouds
10:51 AM64.9 °F50.0 °F58 %30.31 in10.0 miENE (70°)8.1 mphScattered Clouds
11:51 AM68.0 °F48.9 °F50 %30.30 in10.0 miEast (100°)6.9 mphScattered Clouds
12:51 PM70.0 °F48.0 °F46 %30.27 in10.0 miCalmScattered Clouds
1:51 PM72.0 °F46.0 °F40 %30.25 in10.0 miVariable3.5 mphMostly Cloudy
2:51 PM71.1 °F46.9 °F42 %30.22 in10.0 miCalmMostly Cloudy
3:51 PM71.1 °F45.0 °F39 %30.21 in10.0 miNE (50°)3.5 mphMostly Cloudy
4:51 PM72.0 °F45.0 °F38 %30.20 in10.0 miEast (90°)4.6 mphMostly Cloudy
5:51 PM71.1 °F46.9 °F42 %30.19 in10.0 miVariable3.5 mphMostly Cloudy
6:51 PM69.1 °F48.0 °F47 %30.19 in10.0 miCalmMostly Cloudy
7:51 PM61.0 °F53.1 °F75 %30.20 in10.0 miCalmMostly Cloudy
8:51 PM61.0 °F52.0 °F72 %30.22 in10.0 miCalmMostly Cloudy
9:51 PM57.0 °F52.0 °F83 %30.22 in10.0 miCalmScattered Clouds
10:51 PM57.9 °F53.1 °F84 %30.21 in10.0 miCalmMostly Cloudy
11:51 PM55.0 °F51.1 °F86 %30.20 in10.0 miCalmScattered Clouds
Hourly data recorded from KRDU, located miles away from Raleigh, North Carolina







STORIES FROM OUR PARTNERS